Observer details:
104 San Marcello Pistoiese.  Observers P. Bacci, M. Maestripieri.  Measurers
    P. Bacci, L. Tesi, G. Fagioli.  0.60-m reflector + CCD.
160 Castelmartini.  Observers M. Jaeger, E. Prosperi, S. Prosperi.  Measurer
    E. Prosperi.  0.35-m f/10 Schmidt-Cassegrain + CCD.
203 GiaGa Observatory.  Observers S. Foglia, G. Galli.  Measurer G. Galli.
    0.36-m f/5.76 Schmidt-Cassegrain + CCD.
246 Klet Observatory-KLENOT.  Observers M. Tichy, J. Ticha.  Measurer M.
    Tichy.  1.06-m f/2.7 reflector + 2048x2048 CCD.
595 Farra d'Isonzo.  Observer E. Pettarin.  0.40-m f/5.15 reflector + CCD.
598 Loiano.  Observer A. Carbognani.
654 Table Mountain Observatory, Wrightwood-PHMC.  Observers P. Choi, N. Saini,
    C. Zhai, R. Trahan, M. Shao.
718 Tooele.  Observer P. Wiggins.  0.35-m f/5.5 Schmidt-Cassegrain + CCD.
958 Observatoire de Dax.  Observer P. Dupouy.  0.32-m f/4.1 Schmidt-
    Cassegrain.
H21 Astronomical Research Observatory, Westfield.  Observer R. Holmes.
    Measurers S. Foglia, L. Buzzi, T. Linder, R. Holmes.  0.76-m f/3.0
    astrograph + CCD.
H36 Sandlot Observatory, Scranton.  Observer G. Hug.  0.56-m reflector + CCD.
I52 Steward Observatory, Mt. Lemmon Station.  Observer G. J. Leonard.
    Measurers E. J. Christensen, G. A. Farneth, D. C. Fuls, A. R. Gibbs, A. D.
    Grauer, H. Groeller, R. A. Kowalski, S. M. Larson, G. J. Leonard, T. A.
    Pruyne, D. Rankin, R. L. Seaman, F. C. Shelly, K. W. Wierzchos.  1.0-m
    reflector + CCD.
J95 Great Shefford.  Observer P. Birtwhistle.  0.41-m f/6.3 Schmidt-Cassegrain
    + CCD.
K63 G. Pascoli Observatory, Castelvecchio Pascoli.  Observer R. Bacci.  0.4-m
    f/3.2 Newtonian reflector + CCD.
K78 iota Scorpii Observatory, La Spezia.  Observer G. Scarfi.  0.40-m f/6
    Ritchey-Chretien + CCD.
K83 Beppe Forti Astronomical Observatory, Montelupo.  Observers M. Tombelli,
    M. Iozzi, L. Grazzini, A. Mazzanti, G. Interrante.  Measurers M. Tombelli,
    Y. Mazzanti.
K87 Dettelbach Vineyard Observatory.  Observer B. Haeusler.  0.3-m f/5.7
    Schmidt-Cassegrain + CCD.
L01 Visnjan Observatory, Tican.  Observers K. Korlevic, G. Kervina.  Measurer
    K. Korlevic.  1.0-m f/2.9 reflector + CCD.
T08 ATLAS-MLO, Mauna Loa.  Observers L. Denneau, J. Tonry, A. Heinze, H.
    Weiland, H. Flewelling.  Measurers L. Denneau, J. Tonry, A. Heinze, H.
    Weiland, H. Flewelling, B. Stalder, A. Fitzsimmons, J. Robinson, N.
    Erasmus.  0.5-m reflector + CCD.
W33 Transit Dreams Observatory, Campobello.  Observer D. Wilde.  0.35-m f/7.7
    Schmidt-Cassegrain + CCD.
W34 Squirrel Valley Observatory, Columbus.  Observer R. L. Flynn.  0.35-m
    f/1.9 Schmidt-Cassegrain + CCD.
Z80 Northolt Branch Observatory.  Observer G. Wells.  Measurers G. Wells, D.
    Bamberger.  0.25-m f/8.0 Ritchey-Chretien + CCD.

Orbital elements:
2020 LK                                                  Earth MOID = 0.0181 AU
Epoch 2020 May 31.0 TT = JDT 2459000.5                  Veres
M 293.09347              (2000.0)            P               Q
n   0.82602443     Peri.   82.56476     +0.80658910     +0.28484314
a   1.1249696      Node   259.74258     -0.46219093     +0.85015680
e   0.2294461      Incl.   31.76042     +0.36850178     +0.44282933
P   1.19           H   23.4           G   0.15           U   7
Residuals in seconds of arc
200611 T08  0.5+  0.7-    200612 W34  0.6-  0.4+    200612 246  0.3+  0.6+
200611 T08  0.0   0.1-    200612 W34  0.2-  0.6+    200612 246  0.4-  1.2+
200611 T08  0.2-  0.8-    200612 W34  0.1+  0.0     200612 246 (0.0   1.7+)
200611 T08  0.2+  0.5+    200612 W34  0.0   0.7+    200612 246  0.4+  1.1+
200611 T08  0.3+  1.5+    200612 H36  0.0   0.3+    200612 160  1.1+  0.0
200611 T08  0.2-  0.0     200612 H36  0.2+  0.8+    200612 160  0.7+  0.5+
200611 T08 (0.1+  3.0+)   200612 H36  0.1+  1.2+    200612 160 (2.1-  0.2+)
200611 L01  0.2-  0.1+    200612 H36  0.3-  0.8+    200612 160 (2.0+  1.1+)
200611 L01  0.1+  0.4-    200612 H21  0.2+  0.2-    200612 160  0.8+  0.3+
200611 L01  0.0   0.0     200612 H21  0.1+  0.4-    200612 K83 (0.2-  1.6+)
200611 L01  0.1-  0.1-    200612 H21  0.0   0.3-    200612 K83 (0.3-  1.5+)
200611 L01  0.1-  0.1+    200612 H21  0.1+  0.5-    200612 K83  0.3-  1.2+
200611 L01  0.3+  0.3-    200612 H21  0.4+  0.2-    200612 K83  0.2-  1.5+
200611 L01  0.1+  0.2-    200612 H21  0.1+  0.4-    200612 K78  0.8+  0.1+
200611 L01  0.1-  0.3+    200612 I52  0.1-  0.3-    200612 K87  0.0   0.7+
200611 595  0.1-  0.2-    200612 I52  0.1-  0.3-    200612 K87  0.3-  0.0
200611 595  0.1-  0.6-    200612 I52  0.1+  0.8-    200612 203  0.0   0.2+
200611 595  0.1+  0.5-    200612 I52  0.1-  0.8-    200612 203  0.2+  0.1+
200611 595  0.2-  0.7-    200612 654  0.1+  0.6-    200612 K87  0.2-  0.3+
200611 595  0.1-  0.4-    200612 718  0.2+  0.7+    200612 203  0.2-  0.3-
200611 598  0.2-  0.5+    200612 718  0.5+  0.1-    200612 Z80  0.3-  0.2-
200611 598  0.2-  0.5+    200612 718  1.0-  1.4-    200612 J95  0.0   0.3-
200611 598  0.1-  0.6+    200612 718  0.3-  0.2+    200612 J95  0.1+  0.2-
200611 598  0.0   0.8+    200612 718  0.2-  0.3-    200612 Z80  0.2-  0.3+
200611 K63  0.2-  0.0     200612 718  0.7-  0.3-    200612 J95  0.3-  0.3-
200611 598  0.1+  0.5+    200612 654  0.1-  0.0     200612 J95  0.1-  0.3-
200611 K63  0.4+  0.3-    200612 654  0.1+  0.2-    200612 Z80  0.0   0.4-
200611 K63  0.1+  0.5+    200612 654  0.1+  1.1-    200613 W33  0.6+  0.3-
200611 958  0.6+  0.4-    200612 104  0.5+  0.0     200613 W33  0.4-  0.5-
200611 958  0.3+  0.8-    200612 104  0.3+  0.5-    200613 W33  0.3+  0.8-
200611 958  0.0   0.1+    200612 104  0.7-  0.8-    200613 W33  0.1+  0.4-
200611 958  0.0   0.5+    200612 246  0.2+  1.2+
200611 958  0.3-  0.0     200612 246  1.0-  0.8+

Ephemeris:
2020 LK                  a,e,i = 1.12, 0.23, 32                  q = 0.8668
Date    TT    R. A. (2000) Decl.     Delta      r    Elong.  Phase     V
2020 05 14    20 17 16.6 -83 12 56   0.2875  1.1433   110.4    55.9    23.0
...
2020 05 29    17 47 07.1 -83 14 28   0.1416  1.0871   117.9    55.5    21.4
...
2020 06 06    15 06 24.2 -71 48 34   0.06529 1.0565   128.4    48.8    19.4
...
2020 06 12    14 04 26.1 -05 54 24   0.02823 1.0337   129.5    49.3    17.6
2020 06 13    13 57 42.1 +13 14 11   0.03032 1.0299   117.4    61.1    18.1
2020 06 14    13 51 39.2 +28 27 01   0.03523 1.0261   106.2    71.9    18.7
...
2020 06 20    13 25 05.6 +62 09 26   0.08549 1.0037    79.2    96.0    21.5
...
2020 06 28    13 01 17.4 +71 22 11   0.1613  0.9749    70.6   100.4    23.0
...
2020 07 13    12 12 46.7 +76 11 03   0.2997  0.9266    64.3    98.8    24.2

M. P. C. Staff               (C) Copyright 2020 MPC           M.P.E.C. 2020-L47




More information about the Iaude mailing list